C/2006 S3 ( LONEOS )

Japanese version
Home page
Updated on October 11, 2014

---------------------------------------------------------------------

* Profile

Discovery Date September 19, 2006
Magnitude 19.0 mag
Discoverer Lowell Observatory Near-Earth Object Search

* Pictures

* Orbital Elements

Epoch 2012 Apr. 23.0 TT = JDT 2456040.5
T 2012 Apr. 16.33124 TT                                 MPC
q   5.1311484            (2000.0)            P               Q
z  -0.0006845      Peri.  140.13014     -0.21556749     -0.96492586
 +/-0.0000001      Node    38.37075     -0.94613994     +0.24435049
e   1.0035120      Incl.  166.03266     -0.24155719     -0.09597358
From 4898 observations 2006 Aug. 29-2014 Jan. 28, mean residual 0".6.

* Finding Charts

* Magnitudes Graph

        m1 = 4.0 + 5 log d + 7.5 log r(t -  300)

---------------------------------------------------------------------

The orbital elements are published on M.P.E.C. 2014-B85.
The charts are made with StellaNavigator Ver.2.0 for Windows (AstroArts / ASCII).
The magnitudes graphs are made with Comet for Windows.

---------------------------------------------------------------------

Copyright(C) Seiichi Yoshida (comet@aerith.net). All rights reserved.